Vero Beach, FL

7:54 PM EST on December 04, 2016 (GMT -0500)
Vero Beach Municipal

Weather History for KVRB - November, 2010

Change the Weather History Date:

Sunday, November 7, 2010

  Actual Average Record
Temperature  
Mean Temperature 59 °F 72 °F  
Max Temperature 69 °F 80 °F 88 °F (2015)
Min Temperature 49 °F 63 °F 42 °F (1970)
Degree Days  
Heating Degree Days 6 0  
Month to date heating degree days 23 0  
Since 1 July heating degree days 23 3  
Cooling Degree Days 0 7  
Month to date cooling degree days 37 54  
Year to date cooling degree days 3254 3182  
Growing Degree Days 8 (Base 50)    
Moisture  
Dew Point 46 °F    
Average Humidity 62    
Maximum Humidity 73    
Minimum Humidity 50    
Precipitation  
Precipitation T in 0.12 in 1.40 in (1965)
Month to date precipitation 0.32 0.83  
Year to date precipitation 34.37 47.23  
Sea Level Pressure  
Sea Level Pressure 30.17 in    
Wind  
Wind Speed 12 mph (NW)    
Max Wind Speed 22 mph    
Max Gust Speed 30 mph    
Visibility 10 miles    
Events      
T = Trace of Precipitation, MM = Missing Value Source: NWS Daily Summary

Daily Weather History Graph

Daily Weather History Graph

Search for Another Location

Airport or City:

Trip Planner

Search our weather history database for the weather conditions in past years. The results will help you decide how hot, cold, wet, or windy it might be!

Date:

Astronomy

Nov. 07, 2010 Rise Set
Actual Time 6:36 AM EST 5:33 PM EST
Civil Twilight 6:12 AM EST 5:58 PM EST
Nautical Twilight 5:44 AM EST 6:25 PM EST
Astronomical Twilight 5:16 AM EST 6:53 PM EST
Moon 8:07 AM EST (11/7) 6:45 PM EST (11/7)
Length of Visible Light 11h 45m
Length of Day
10h 57m
Waxing Crescent, 3% of the Moon is Illuminated
Nov 7
Waxing Crescent
Nov 13
First Quarter
Nov 21
Full
Nov 28
Last Quarter
Dec 5
New

Hourly Weather History & Observations

Time (EST) Temp. Dew Point Humidity Pressure Visibility Wind Dir Wind Speed Gust Speed Precip Events Conditions
12:53 AM 52.0 °F 33.1 °F 49% 30.23 in 10.0 mi NW 11.5 mph - N/A   Mostly Cloudy
1:53 AM 51.1 °F 33.1 °F 50% 30.22 in 10.0 mi NW 12.7 mph - N/A   Clear
1:53 AM 50.0 °F 33.1 °F 52% 30.20 in 10.0 mi WNW 12.7 mph - N/A   Clear
2:53 AM 50.0 °F 35.1 °F 57% 30.18 in 10.0 mi WNW 12.7 mph - N/A   Scattered Clouds
3:53 AM 48.9 °F 36.0 °F 61% 30.17 in 10.0 mi WNW 11.5 mph - N/A   Scattered Clouds
4:53 AM 50.0 °F 37.0 °F 61% 30.17 in 10.0 mi NW 9.2 mph - N/A   Scattered Clouds
5:53 AM 50.0 °F 37.9 °F 63% 30.18 in 10.0 mi NW 13.8 mph - N/A   Partly Cloudy
6:53 AM 50.0 °F 39.0 °F 66% 30.20 in 10.0 mi NW 10.4 mph - N/A   Mostly Cloudy
7:53 AM 54.0 °F 41.0 °F 62% 30.20 in 10.0 mi NW 12.7 mph - N/A   Clear
8:53 AM 60.1 °F 44.1 °F 55% 30.22 in 10.0 mi NW 11.5 mph 20.7 mph N/A   Mostly Cloudy
9:53 AM 62.1 °F 45.0 °F 53% 30.22 in 10.0 mi NW 11.5 mph - N/A   Overcast
10:53 AM 63.0 °F 46.0 °F 54% 30.21 in 10.0 mi NNW 13.8 mph - N/A   Overcast
11:53 AM 64.0 °F 48.0 °F 56% 30.19 in 10.0 mi NW 9.2 mph - N/A   Overcast
12:53 PM 66.0 °F 51.1 °F 59% 30.16 in 10.0 mi NW 9.2 mph 17.3 mph N/A   Overcast
1:53 PM 66.9 °F 55.9 °F 68% 30.14 in 10.0 mi NNW 16.1 mph 23.0 mph N/A   Overcast
2:53 PM 66.0 °F 55.9 °F 70% 30.12 in 10.0 mi NNW 15.0 mph 23.0 mph N/A   Overcast
3:53 PM 64.0 °F 55.9 °F 75% 30.12 in 10.0 mi North 6.9 mph - 0.00 in   Overcast
4:53 PM 68.0 °F 52.0 °F 56% 30.12 in 10.0 mi NNE 10.4 mph 21.9 mph N/A   Overcast
5:53 PM 66.9 °F 54.0 °F 63% 30.13 in 10.0 mi North 16.1 mph 21.9 mph N/A   Overcast
6:53 PM 64.0 °F 54.0 °F 70% 30.14 in 10.0 mi NW 11.5 mph - N/A   Overcast
7:53 PM 63.0 °F 53.1 °F 70% 30.14 in 10.0 mi NNW 13.8 mph - N/A   Overcast
8:53 PM 63.0 °F 53.1 °F 70% 30.15 in 10.0 mi NW 10.4 mph - N/A   Overcast
9:53 PM 64.0 °F 55.0 °F 73% 30.15 in 10.0 mi NNW 11.5 mph 23.0 mph N/A   Overcast
10:53 PM 60.1 °F 51.1 °F 72% 30.14 in 10.0 mi NW 10.4 mph - N/A   Overcast